Location: Newark
(60.6561°N, 46.5772°E)
Time: 22:46:22
(UTC+00:00)

S-56A Canister/Altair - All Passes

Search period start: 20 October 2019 00:00
Search period end: 30 October 2019 00:00
Orbit: 633 x 2499 km, 38.9° (Epoch: 18 October)

Date Brightness Start Highest point End Pass type
(mag) Time Alt. Az. Time Alt. Az. Time Alt. Az.
20 Oct - 00:17:30 10° S 00:20:54 13° SSE 00:24:49 10° SE visible
20 Oct - 02:17:34 10° SW 02:23:07 19° S 02:30:02 10° SE visible
20 Oct - 04:20:34 10° SW 04:25:50 15° SSW 04:32:00 10° S daylight
20 Oct - 23:46:21 10° SSE 23:48:22 11° SSE 23:50:34 10° SE visible
21 Oct - 01:45:25 10° SSW 01:50:24 17° S 01:56:33 10° SE visible
21 Oct - 03:48:04 10° SW 03:53:02 15° SSW 03:58:54 10° SSE daylight
22 Oct - 01:13:23 10° SSW 01:17:45 16° S 01:23:04 10° SE visible
22 Oct - 03:15:38 10° SW 03:20:17 15° SSW 03:25:45 10° SSE daylight
23 Oct - 00:41:26 10° SSW 00:45:09 14° SSE 00:49:32 10° SE visible
23 Oct - 02:43:19 10° SW 02:47:33 15° S 02:52:32 10° SSE visible
24 Oct - 00:09:40 10° S 00:12:35 13° SSE 00:15:54 10° SE visible
24 Oct - 02:11:05 10° SW 02:14:52 14° S 02:19:17 10° SSE visible
24 Oct - 23:38:15 10° S 23:40:03 11° SSE 23:42:02 10° SSE visible
25 Oct - 01:38:57 10° SSW 01:42:13 13° S 01:45:59 10° SSE visible
26 Oct - 01:06:57 10° SSW 01:09:37 12° S 01:12:38 10° SSE visible
27 Oct - 00:35:08 10° SSW 00:37:03 11° S 00:39:09 10° SSE visible
28 Oct - 00:03:57 10° S 00:04:32 10° S 00:05:06 10° S visible
